When you browse on this site, cookies collect data to enhance your experience and personalize the content and advertising you see.
Visit our Privacy Policy to learn more. By continuing to use the site, you agree to this use of cookies and data.
  • în România
  • Lista ţărilor
  • Pe 7 zile
  • Temperatura apei
  • Hartă satelitară
  • Meteo pe hartă
  • Widget-uri
  • user-avatar
    Intrare

    Meteo pe oră la Shardzha

    Astăzi, 25 Mai, Sâmbătă

    Timp Temperatura Precipitaţii Vânt Presiune Umiditate
    00:00 +31°C° 0 mm 0 m/s 755 mmHg 38%
    01:00 +30°C° 0 mm 0 m/s 755 mmHg 38%
    02:00 +32°C° 0 mm 1 m/s 755 mmHg 38%
    03:00 +32°C° 0 mm 1 m/s 755 mmHg 38%
    04:00 +31°C° 0 mm 1 m/s 754 mmHg 39%
    05:00 +32°C° 0 mm 1 m/s 755 mmHg 39%
    06:00 +32°C° 0 mm 2 m/s 755 mmHg 39%
    07:00 +32°C° 0 mm 2 m/s 755 mmHg 38%
    08:00 +35°C° 0 mm 2 m/s 755 mmHg 34%
    09:00 +36°C° 0 mm 1 m/s 755 mmHg 29%
    10:00 +37°C° 0 mm 1 m/s 756 mmHg 25%
    11:00 +39°C° 0 mm 2 m/s 755 mmHg 23%
    12:00 +40°C° 0 mm 3 m/s 755 mmHg 20%
    13:00 +42°C° 0 mm 3 m/s 755 mmHg 18%
    14:00 +42°C° 0 mm 4 m/s 755 mmHg 19%
    15:00 +42°C° 0 mm 5 m/s 754 mmHg 20%
    16:00 +42°C° 0 mm 5 m/s 754 mmHg 21%
    17:00 +41°C° 0 mm 5 m/s 754 mmHg 24%
    18:00 +38°C° 0 mm 4 m/s 754 mmHg 26%
    19:00 +37°C° 0 mm 4 m/s 754 mmHg 29%
    20:00 +37°C° 0 mm 3 m/s 754 mmHg 29%
    21:00 +37°C° 0 mm 2 m/s 754 mmHg 29%
    22:00 +35°C° 0 mm 1 m/s 754 mmHg 30%
    23:00 +35°C° 0 mm 1 m/s 754 mmHg 30%

    Mâine, 26 Mai, Duminică

    Timp Temperatura Precipitaţii Vânt Presiune Umiditate
    00:00 +35°C° 0 mm 1 m/s 754 mmHg 30%
    01:00 +34°C° 0 mm 1 m/s 753 mmHg 30%
    02:00 +34°C° 0 mm 1 m/s 753 mmHg 31%
    03:00 +34°C° 0 mm 2 m/s 753 mmHg 32%
    04:00 +34°C° 0 mm 2 m/s 753 mmHg 33%
    05:00 +34°C° 0 mm 2 m/s 753 mmHg 33%
    06:00 +35°C° 0 mm 2 m/s 753 mmHg 32%
    07:00 +35°C° 0 mm 2 m/s 754 mmHg 31%
    08:00 +37°C° 0 mm 2 m/s 754 mmHg 27%
    09:00 +39°C° 0 mm 1 m/s 754 mmHg 23%
    10:00 +41°C° 0 mm 1 m/s 754 mmHg 20%
    11:00 +42°C° 0 mm 2 m/s 754 mmHg 18%
    12:00 +44°C° 0 mm 3 m/s 754 mmHg 16%
    13:00 +45°C° 0 mm 3 m/s 754 mmHg 14%
    14:00 +45°C° 0 mm 4 m/s 753 mmHg 16%
    15:00 +45°C° 0 mm 6 m/s 753 mmHg 17%
    16:00 +45°C° 0 mm 7 m/s 752 mmHg 19%
    17:00 +44°C° 0 mm 6 m/s 752 mmHg 20%
    18:00 +42°C° 0 mm 5 m/s 752 mmHg 22%
    19:00 +41°C° 0 mm 5 m/s 752 mmHg 23%
    20:00 +40°C° 0 mm 4 m/s 752 mmHg 26%
    21:00 +38°C° 0 mm 4 m/s 753 mmHg 28%
    22:00 +38°C° 0 mm 4 m/s 753 mmHg 31%
    23:00 +37°C° 0 mm 3 m/s 753 mmHg 32%

    Poimâine, 27 Mai, Luni

    Timp Temperatura Precipitaţii Vânt Presiune Umiditate
    00:00 +37°C° 0 mm 3 m/s 752 mmHg 33%
    01:00 +36°C° 0 mm 3 m/s 752 mmHg 33%
    02:00 +36°C° 0 mm 3 m/s 752 mmHg 33%
    03:00 +36°C° 0 mm 2 m/s 752 mmHg 32%
    04:00 +36°C° 0 mm 2 m/s 752 mmHg 31%
    05:00 +36°C° 0 mm 2 m/s 752 mmHg 28%
    06:00 +37°C° 0 mm 2 m/s 752 mmHg 26%
    07:00 +37°C° 0 mm 2 m/s 753 mmHg 23%
    08:00 +39°C° 0 mm 3 m/s 753 mmHg 23%
    09:00 +42°C° 0 mm 4 m/s 753 mmHg 24%
    10:00 +43°C° 0 mm 5 m/s 754 mmHg 25%
    11:00 +44°C° 0 mm 4 m/s 754 mmHg 22%
    12:00 +45°C° 0 mm 3 m/s 753 mmHg 20%
    13:00 +46°C° 0 mm 2 m/s 753 mmHg 17%
    14:00 +47°C° 0 mm 4 m/s 753 mmHg 19%
    15:00 +46°C° 0 mm 5 m/s 752 mmHg 22%
    16:00 +45°C° 0 mm 7 m/s 752 mmHg 24%
    17:00 +44°C° 0 mm 6 m/s 752 mmHg 27%
    18:00 +42°C° 0 mm 6 m/s 752 mmHg 29%
    19:00 +41°C° 0 mm 5 m/s 752 mmHg 31%
    20:00 +41°C° 0 mm 5 m/s 752 mmHg 32%
    21:00 +40°C° 0 mm 4 m/s 753 mmHg 32%
    22:00 +40°C° 0 mm 4 m/s 753 mmHg 33%
    23:00 +38°C° 0 mm 3 m/s 753 mmHg 31%

    28 Mai, Marţi

    Timp Temperatura Precipitaţii Vânt Presiune Umiditate
    00:00 +38°C° 0 mm 3 m/s 752 mmHg 30%
    01:00 +38°C° 0 mm 3 m/s 752 mmHg 29%
    02:00 +38°C° 0 mm 3 m/s 752 mmHg 27%
    03:00 +38°C° 0 mm 3 m/s 752 mmHg 26%
    04:00 +37°C° 0 mm 2 m/s 752 mmHg 25%
    05:00 +38°C° 0 mm 2 m/s 752 mmHg 24%
    06:00 +38°C° 0 mm 2 m/s 752 mmHg 22%
    07:00 +39°C° 0 mm 2 m/s 753 mmHg 21%
    08:00 +40°C° 0 mm 3 m/s 753 mmHg 21%
    09:00 +43°C° 0 mm 4 m/s 753 mmHg 21%
    10:00 +45°C° 0 mm 6 m/s 754 mmHg 21%
    11:00 +46°C° 0 mm 5 m/s 753 mmHg 20%
    12:00 +47°C° 0 mm 5 m/s 753 mmHg 18%
    13:00 +48°C° 0 mm 5 m/s 753 mmHg 17%
    14:00 +48°C° 0 mm 5 m/s 752 mmHg 18%
    15:00 +48°C° 0 mm 5 m/s 752 mmHg 18%
    16:00 +48°C° 0 mm 5 m/s 752 mmHg 19%
    17:00 +46°C° 0 mm 6 m/s 752 mmHg 24%
    18:00 +44°C° 0 mm 6 m/s 752 mmHg 29%
    19:00 +41°C° 0 mm 7 m/s 752 mmHg 34%
    20:00 +41°C° 0 mm 6 m/s 752 mmHg 34%
    21:00 +40°C° 0 mm 5 m/s 752 mmHg 34%
    22:00 +40°C° 0 mm 4 m/s 752 mmHg 34%
    23:00 +40°C° 0 mm 4 m/s 752 mmHg 33%

    29 Mai, Miercuri

    Timp Temperatura Precipitaţii Vânt Presiune Umiditate
    00:00 +39°C° 0 mm 3 m/s 752 mmHg 31%
    01:00 +39°C° 0 mm 2 m/s 752 mmHg 30%
    02:00 +38°C° 0 mm 2 m/s 752 mmHg 29%
    03:00 +38°C° 0 mm 2 m/s 751 mmHg 29%
    04:00 +38°C° 0 mm 2 m/s 751 mmHg 28%
    05:00 +38°C° 0 mm 2 m/s 752 mmHg 27%
    06:00 +37°C° 0 mm 1 m/s 752 mmHg 26%
    07:00 +39°C° 0 mm 1 m/s 753 mmHg 25%
    08:00 +40°C° 0 mm 3 m/s 753 mmHg 24%
    09:00 +43°C° 0 mm 4 m/s 753 mmHg 24%
    10:00 +45°C° 0 mm 5 m/s 753 mmHg 23%
    11:00 +46°C° 0 mm 5 m/s 753 mmHg 21%
    12:00 +47°C° 0 mm 5 m/s 752 mmHg 19%
    13:00 +48°C° 0 mm 5 m/s 752 mmHg 17%
    14:00 +48°C° 0 mm 5 m/s 752 mmHg 17%
    15:00 +47°C° 0 mm 6 m/s 751 mmHg 18%
    16:00 +47°C° 0 mm 6 m/s 751 mmHg 18%
    17:00 +46°C° 0 mm 6 m/s 751 mmHg 21%
    18:00 +43°C° 0 mm 5 m/s 751 mmHg 23%
    19:00 +42°C° 0 mm 5 m/s 751 mmHg 26%
    20:00 +41°C° 0 mm 4 m/s 752 mmHg 28%
    21:00 +40°C° 0 mm 4 m/s 752 mmHg 29%
    22:00 +39°C° 0 mm 3 m/s 752 mmHg 31%
    23:00 +38°C° 0 mm 3 m/s 752 mmHg 31%

    30 Mai, Joi

    Timp Temperatura Precipitaţii Vânt Presiune Umiditate
    00:00 +38°C° 0 mm 3 m/s 751 mmHg 32%
    01:00 +37°C° 0 mm 2 m/s 751 mmHg 32%
    02:00 +37°C° 0 mm 2 m/s 751 mmHg 32%
    03:00 +36°C° 0 mm 2 m/s 751 mmHg 32%
    04:00 +35°C° 0 mm 1 m/s 751 mmHg 32%
    05:00 +36°C° 0 mm 1 m/s 751 mmHg 30%
    06:00 +38°C° 0 mm 2 m/s 752 mmHg 27%
    07:00 +38°C° 0 mm 2 m/s 752 mmHg 25%
    08:00 +41°C° 0 mm 4 m/s 752 mmHg 25%
    09:00 +42°C° 0 mm 6 m/s 752 mmHg 25%
    10:00 +45°C° 0 mm 7 m/s 753 mmHg 25%
    11:00 +46°C° 0 mm 7 m/s 752 mmHg 22%
    12:00 +47°C° 0 mm 7 m/s 752 mmHg 20%
    13:00 +48°C° 0 mm 6 m/s 751 mmHg 17%
    14:00 +48°C° 0 mm 6 m/s 751 mmHg 18%
    15:00 +48°C° 0 mm 6 m/s 751 mmHg 18%
    16:00 +48°C° 0 mm 6 m/s 750 mmHg 19%
    17:00 +46°C° 0 mm 6 m/s 750 mmHg 23%
    18:00 +44°C° 0 mm 6 m/s 751 mmHg 28%
    19:00 +41°C° 0 mm 5 m/s 751 mmHg 32%
    20:00 +40°C° 0 mm 4 m/s 751 mmHg 33%
    21:00 +39°C° 0 mm 3 m/s 751 mmHg 34%
    22:00 +38°C° 0 mm 3 m/s 751 mmHg 36%
    23:00 +38°C° 0 mm 2 m/s 751 mmHg 35%
    Arată mai mult